BREEZE-M DEB, 32037

Orbit data source: Space-Track

BREEZE-M DEB, 32037 is space debris in HEO originally from a launch on Tue, 28 Feb 2006 UTC launched from the Tyuratam Missile And Space Complex (TTMTR). Debris objects in space refer to the collection of defunct objects orbiting the Earth. Examples of debris include non-operational satellites, rocket bodies, and fragments generated from explosions, collisions, or faulty payload assembly.

Loading next visibility...
Identifier
32037, 2006-006Q
Orbit
HEO
Country
Flag of CISCIS
Related business
Manufacturer
Khrunichev
Mission
Spacecraft
Bus & Motor
Unknown
Mass
Unknown
Launch date (UTC)
2006-02-28 (20 years ago)
Launch vehicle
Unknown
Launch site
Tyuratam Missile And Space Complex (TTMTR)
Object type
Payload
Rocket body
Debris
Shape & HBR
Unknown shape, 0.2 m
Radar Cross Section
Medium (>0.1 m² and <1 m²)

Expand to show TLE details & history
Last TLE update: 15 hours ago

TLE from 15 hours ago
0 BREEZE-M DEB
1 32037U 06006Q   26162.79931918  .00004864  00000-0  22201-2 0  9992
2 32037  51.6434 300.5654 4779860 101.2625 314.2755  5.88855461392079
Epoch: 2026-06-11T19:11Z
TLE epoch observation values (Epoch: 2026-06-11T19:11:01.177Z)
Latitude
0.00002°
Longitude
112.65649°
Altitude
4,638.32 km
Speed
6.45 km/s
True Right ascension
20h 02m 11s
True Declination
0° 00' 00"
Sunlit
Object was in daylight at epoch
Visualization orbit readout
Latitude
Unknown
Longitude
Unknown
Altitude
Unknown
Speed
Unknown
Apparent Right ascension
Unknown
Apparent Declination
Unknown
Sunlit
N/A
Visualization observer readout
Local Sidereal Time
20:07:17
Azimuth
Unknown
Elevation
Unknown
Doppler factor
Unknown
Orbital elements
Apogee altitude
12,767.935 km
Perigee altitude
384.117 km
Semi-major axis
12,954.163 km
Eccentricity
0.47799
Inclination
51.6434°
RAAN
300.5654°
Arg. of periapsis
101.2625°
True anomaly
258.84322°
Mean anomaly
314.2755°
Eccentric anomaly
288.26939°
Mean motion
1.47207 °/min
Orbital period
244.55 mins
BSTAR
0.0022201
Loading maneuver chart data...
Computing Atmospheric mass density...
Loading historical data...
Loading historical data...
Loading historical data...
Loading historical data...
Loading historical data...
Loading historical data...
Loading historical data...

Documentation

Showing up to 5 results
|